Regional Weather Roundup
Issued by NWS Little Rock, AR

Home | Current Version | Previous Version | Graphics & Text | Print | Product List | Glossary On
Versions: 1 2 3 4 5 6 7 8 9 10 11 12 13 14 15 16 17 18 19 20 21 22 23 24 25 26 27 28 29 30 31 32 33 34 35 36 37 38 39 40 41 42 43 44 45 46 47 48 49 50
000
ASUS44 KLZK 302305
RWRLZK

WEATHER ROUNDUP FOR ARKANSAS
NATIONAL WEATHER SERVICE LITTLE ROCK AR
600 PM CDT SAT AUG 30 2014

NOTE: "FAIR" INDICATES FEW OR NO CLOUDS BELOW 12,000 FEET WITH NO
SIGNIFICANT WEATHER AND/OR OBSTRUCTIONS TO VISIBILITY.

ARZ001-003-010-029-310000-
NORTHWEST ARKANSAS

CITY           SKY/WX    TMP DP  RH WIND       PRES   REMARKS
FAYETTEVILLE   MOSUNNY   81  70  69 S6        29.94R
FORT SMITH     MOSUNNY   89  69  51 S6        29.88F HX  93
HARRISON       PTSUNNY   79  71  76 SE12      29.95S
BENTONVILLE    MOSUNNY   81  63  54 CALM      29.94F
ROGERS         MOSUNNY   78  63  59 SE7       29.94F
HIGHFILL       PTSUNNY   81  63  54 E5        29.93S
SPRINGDALE     PTSUNNY   84  68  58 S12       29.95S HX  87
$$

ARZ004-005-016-310000-
NORTH CENTRAL ARKANSAS

CITY           SKY/WX    TMP DP  RH WIND       PRES   REMARKS
BATESVILLE     CLOUDY    82  70  65 S7        29.95S HX  86
FLIPPIN        PTSUNNY   73  66  78 S3        29.94S
MTN HOME       LGT RAIN  75  71  87 VRB3      29.94F
$$

ARZ040-041-310000-
WEST CENTRAL ARKANSAS

CITY           SKY/WX    TMP DP  RH WIND       PRES   REMARKS
MENA           CLOUDY    79  72  78 CALM      29.95R
MOUNT IDA      MOSUNNY   78  74  87 CALM      29.92S
$$

ARZ009-017-025-026-028-310000-
NORTHEAST ARKANSAS

CITY           SKY/WX    TMP DP  RH WIND       PRES   REMARKS
CORNING          N/A     81  73  78 S10       29.97R HX  85
JONESBORO      CLOUDY    80  72  76 S8        29.96S
NEWPORT        CLOUDY    82  73  74 S9        29.96S HX  87
WALNUT RIDGE   CLOUDY    79  70  73 S9        29.96R
BLYTHEVILLE    CLOUDY    79  74  84 S10       29.99S
$$

ARZ022-023-033-042-044-310000-
CENTRAL ARKANSAS

CITY           SKY/WX    TMP DP  RH WIND       PRES   REMARKS
LITTLE ROCK    PTSUNNY   82  71  69 SE10      29.94S HX  86
N LITTLE ROCK  PTSUNNY   82  73  74 SE8       29.94S HX  88
JACKSONVILLE   PTSUNNY   83  72  70 S6        29.95R HX  88
SEARCY         CLOUDY    82  74  77 MISG      29.96S HX  88
HOT SPRINGS      N/A     82  72  71 E5        29.94R HX  87
RUSSELLVILLE   PTSUNNY   84  72  67 VRB6      29.93R HX  89
CLINTON        PTSUNNY   81  75  83 CALM      29.95S HX  86
$$

ARZ036-310000-
EAST ARKANSAS

CITY           SKY/WX    TMP DP  RH WIND       PRES   REMARKS
WEST MEMPHIS   LGT RAIN  76  75  97 S12       29.99R
$$

ARZ050-053-066-070-073-310000-
SOUTHWEST ARKANSAS

CITY           SKY/WX    TMP DP  RH WIND       PRES   REMARKS
ARKADELPHIA    FAIR      84  73  69 SE6       29.93S HX  90
CAMDEN         RAIN      75  73  94 CALM      29.93S VSB 1
TEXARKANA      MOSUNNY   83  70  64 SE7       29.92R HX  87
EL DORADO      LGT RAIN  75  74  96 CALM      29.93S FOG
DE QUEEN       MOSUNNY   85  72  65 SE8       29.89R HX  91
$$

ARZ056-057-069-310000-
SOUTHEAST ARKANSAS

CITY           SKY/WX    TMP DP  RH WIND       PRES   REMARKS
PINE BLUFF     CLOUDY    79  72  79 E8        29.95S
STUTTGART      CLOUDY    79  72  78 SE9       29.97S
MONTICELLO     CLOUDY    76  73  91 E5        29.95S

$$





USA.gov is the U.S. government's official web portal to all federal, state and local government web resources and services.